Home > Weather > Malmö > Past weeks

Flag for Sweden Weather for the Past 2 Weeks in Malmö, Sweden

Now
41 °F

Passing clouds.


Feels Like: 35 °F
Forecast: 38 / 41 °F
Wind: 10 mph from Southwest

Location: Malmo / Sturup

Current Time: Feb 8, 2016 at 9:06:27 PM

Latest Report: Feb 8, 2016 at 8:20 PM


Visibility: N/A

Pressure: 29.12 "Hg

Humidity: 93%

Dew point: 39 °F

Location of MalmöLocation

Historic Weather in Malmö — Graph

°F

Malmö Temperature Yesterday

Maximum temperature yesterday: 45 °F (at 10:20 AM)
Minimum temperature yesterday: 37 °F (at 6:20 AM)
Average temperature yesterday: 42 °F

High & Low Weather Summary for the Past Weeks

 TemperatureHumidityPressure
High46 °F (Jan 27, 2:20 PM)100% (Jan 24, 7:20 PM)30.21 "Hg (Jan 24, 7:20 PM)
Low30 °F (Feb 5, 3:20 AM)61% (Jan 28, 1:20 PM)29.09 "Hg (Feb 8, 3:50 PM)
Average40 °F89%29.68 "Hg
* Reported Jan 24 7:20 PM — Feb 8 7:50 PM, Malmö, Weather by CustomWeather, © 2016

Note: Actual official high and low records may vary slightly from our data, if they occured in-between our weather recording intervals... More about our weather records

Advertising

Malmö Weather History for the Previous 24 Hours

 ConditionsComfort  
Time TempWeatherWind HumidityBarometerVisibility
7:50 PM
Mon, Feb 8
41 °FLight rain. Passing clouds.10 mph87%29.12 "HgN/A
7:20 PM41 °FPartly cloudy.9 mph87%29.12 "HgN/A
6:50 PM41 °FPartly cloudy.15 mph87%29.12 "HgN/A
6:20 PM43 °FOvercast.20 mph87%29.12 "HgN/A
5:50 PM43 °FPassing clouds.18 mph87%29.09 "HgN/A
5:20 PM43 °FOvercast.18 mph87%29.09 "HgN/A
4:50 PM43 °FCloudy.17 mph87%29.09 "HgN/A
4:20 PM43 °FPartly sunny.20 mph87%29.09 "HgN/A
3:50 PM43 °FPartly sunny.17 mph87%29.09 "HgN/A
3:20 PM43 °FPartly sunny.17 mph87%29.12 "HgN/A
2:50 PM43 °FFog.21 mph87%29.12 "Hg6 mi
2:20 PM43 °FPartly sunny.21 mph87%29.12 "HgN/A
1:50 PM43 °FPartly sunny.20 mph87%29.12 "HgN/A
1:20 PM41 °FLight rain. Mostly cloudy.23 mph93%29.15 "HgN/A
12:50 PM41 °FLight rain. Mostly cloudy.23 mph93%29.15 "Hg4 mi
12:20 PM41 °FLight rain. Partly sunny.23 mph87%29.18 "Hg5 mi
11:50 AM41 °FLight rain. Partly sunny.23 mph87%29.18 "HgN/A
11:20 AM41 °FPartly sunny.24 mph87%29.21 "HgN/A
10:50 AM39 °FPartly sunny.24 mph93%29.21 "HgN/A
10:20 AM39 °FLight rain. Partly sunny.22 mph93%29.24 "HgN/A
9:50 AM39 °FPartly sunny.23 mph93%29.24 "HgN/A
9:20 AM39 °FLight rain. Fog.24 mph93%29.24 "Hg4 mi
8:50 AM39 °FRain. Partly sunny.23 mph87%29.27 "HgN/A
8:20 AM41 °FDrizzle. Partly sunny.24 mph81%29.27 "HgN/A
7:50 AM39 °FSunny.22 mph87%29.30 "Hg10 mi
7:20 AM39 °FClear.22 mph81%29.30 "Hg10 mi
6:50 AM39 °FClear.21 mph87%29.33 "Hg10 mi
6:20 AM39 °FClear.18 mph87%29.33 "Hg10 mi
5:50 AM39 °FClear.18 mph81%29.36 "Hg10 mi
5:20 AM39 °FClear.20 mph87%29.39 "Hg10 mi
4:20 AM39 °FClear.17 mph87%29.42 "Hg10 mi
3:50 AM39 °FClear.15 mph87%29.42 "Hg10 mi
3:20 AM41 °FClear.16 mph81%29.42 "Hg10 mi
2:50 AM41 °FClear.15 mph81%29.45 "Hg10 mi
2:20 AM41 °FClear.16 mph81%29.45 "Hg10 mi
1:50 AM43 °FClear.15 mph81%29.45 "Hg10 mi
1:20 AM43 °FClear.15 mph81%29.47 "Hg10 mi
12:50 AM41 °FPassing clouds.14 mph87%29.47 "HgN/A
12:20 AM43 °FClear.13 mph81%29.47 "Hg10 mi
11:50 PM
Sun, Feb 7
43 °FClear.13 mph81%29.47 "Hg10 mi
11:20 PM41 °FClear.12 mph93%29.47 "Hg10 mi
10:50 PM41 °FPassing clouds.10 mph93%29.47 "HgN/A
10:20 PM43 °FPassing clouds.8 mph87%29.47 "HgN/A
9:50 PM41 °FPartly cloudy.10 mph100%29.47 "HgN/A
9:20 PM41 °FPassing clouds.7 mph93%29.47 "HgN/A
Weather by CustomWeather, © 2016

See weather overviewHow to use our weather pages